Regional Weather Roundup
Issued by NWS

Home | Current Version | Previous Version | Text Only | Print | Product List | Glossary On
Versions: 1 2 3 4 5 6 7 8 9 10 11 12 13 14 15 16 17 18 19 20 21 22 23 24 25 26 27 28 29 30 31 32 33 34 35 36 37 38 39 40 41 42 43 44 45 46 47 48 49 50
979
ASCA44 KEWX 270320
RWRMX

LATIN AMERICA AND CARIBBEAN REGIONAL WEATHER ROUNDUP
NATIONAL WEATHER SERVICE AUSTIN/SAN ANTONIO TX
1000 PM CDT MON SEP 26 2016

NOTE: "FAIR" INDICATED FEW OR NO CLOUDS BELOW 12,000 FEET WITH NO
SIGNIFICANT WEATHER AND/OR OBSTRUCTIONS TO VISIBILITY.

BAJA CALIFORNIA

CITY           SKY/WX    TMP DP  RH WIND       PRES   REMARKS
LA PAZ         MOCLDY    81  66  61 SW5       29.85
MEXICALI       CLOUDY    86  46  25 E7        29.87
S.J. DEL CABO  PTCLDY    79  68  69 NW6       29.85R
TIJUANA        MOCLDY    91  37  15 CALM      29.87S

NORTHWESTERN MEXICO

CITY           SKY/WX    TMP DP  RH WIND       PRES   REMARKS
CULIACAN       PTCLDY    81  72  74 CALM      29.81
DURANGO        MOCLDY    63  63 100 W5        30.24R
GUAYMAS          N/A    N/A N/A N/A MISG        N/A
HERMOSILLO     MOCLDY    82  63  51 N6        29.88
CD. JUAREZ     MOCLDY    55  52  88 CALM      30.24
LOS MOCHIS     MOCLDY    82  68  61 NW8       29.83R

NORTHEASTERN MEXICO

CITY           SKY/WX    TMP DP  RH WIND       PRES   REMARKS
CHIHUAHUA      CLOUDY    54  54 100 N10       30.28
MONCLOVA         N/A    N/A N/A N/A MISG        N/A
MONTERREY      CLOUDY    70  68  94 W5        30.06R
REYNOSA          N/A    N/A N/A N/A MISG        N/A
SALTILLO       CLOUDY    61  59  94 N7        30.22R FOG
TORREON        MOCLDY    75  66  73 NE9       30.12R
CD. VICTORIA     N/A    N/A N/A N/A MISG        N/A

WESTERN MEXICO

CITY           SKY/WX    TMP DP  RH WIND       PRES   REMARKS
AGUASCALIENTES MOCLDY    66  57  72 E7        30.19
COLIMA         MOCLDY    73  70  88 CALM      29.99R
DEL BAJIO      PTCLDY    68  55  64 NE9       30.24R
GUADALAJARA    MOCLDY    70  59  68 SW3       30.11
MAZATLAN       MOCLDY    81  75  83 NE3       29.83R
P. VALLARTA    PTCLDY    82  77  83 NE3       29.83R HX  91
URUAPAN        MOCLDY    66  64  94 CALM      30.13R
ZACATECAS        N/A    N/A N/A N/A MISG        N/A

CENTRAL MEXICO

CITY           SKY/WX    TMP DP  RH WIND       PRES   REMARKS
CUERNAVACA       N/A    N/A N/A N/A MISG        N/A
MEXICO CITY    MOCLDY    64  52  63 N12       30.30R
MORELIA        CLOUDY    66  59  77 CALM      30.17
POZA RICA        N/A    N/A N/A N/A MISG        N/A
QUERETARO      PTCLDY    63  57  82 E9        30.29R
S. LUIS POTOSI PTCLDY    64  54  68 SE8       30.23R
TAMPICO        PTCLDY    79  73  83 N12       29.90R
TOLUCA         CLOUDY    59  54  82 CALM      30.34R

SOUTHERN MEXICO

CITY           SKY/WX    TMP DP  RH WIND       PRES   REMARKS
ACAPULCO       LGT RAIN  82  77  83 NE6       29.86R HX  91
B. DE HUATULCO   N/A    N/A N/A N/A MISG        N/A
P. ESCONDIDO     N/A    N/A N/A N/A MISG        N/A
VERACRUZ       MOCLDY    82  75  78 NE6       29.90R
ZIHUATANEJO      N/A    N/A N/A N/A MISG        N/A

YUCATAN PENINSULA

CITY           SKY/WX    TMP DP  RH WIND       PRES   REMARKS
CAMPECHE         N/A    N/A N/A N/A MISG        N/A
CANCUN         MOCLDY    79  79 100 N6        29.94S
CHETUMAL       CLOUDY    82  77  83 CALM      29.92  HX  91
CD. DEL CARMEN   N/A    N/A N/A N/A MISG        N/A
COZUMEL        MOCLDY    81  75  83 CALM      29.92S
MERIDA         MOCLDY    73  72  94 CALM      29.95R
MINATITLAN       N/A    N/A N/A N/A MISG        N/A
TAPACHULA      MOCLDY    79  75  89 CALM      29.87R
TUX. GUTIERREZ HVY RAIN  68  68 100 SE9       30.01R
VILLAHERMOSA   MOCLDY    77  75  94 CALM      29.93R

CENTRAL AMERICA

CITY           SKY/WX    TMP DP  RH WIND       PRES   REMARKS
MANAGUA        PTCLDY    77  75  94 SE5       29.89R

CARIBBEAN

CITY           SKY/WX    TMP DP  RH WIND       PRES   REMARKS
ARUBA          PTCLDY    84  79  84 E20       29.86S HX  96
CURACAO        PTCLDY    82  77  83 E10       29.89S HX  91
KINGSTON       PTCLDY    84  77  79 N3        29.92S HX  94
NASSAU         MOCLDY    79  77  94 CALM      30.00R
SAN JUAN       PTCLDY    82  77  83 E6        29.96F HX  91
SANTO DOMINGO  PTCLDY    77  72  83 VRB3      29.94S
ST. CROIX      CLEAR     75  75 100 N5        29.96
ST. THOMAS     CLEAR     82  75  78 NE5       29.95F

$$





USA.gov is the U.S. government's official web portal to all federal, state and local government web resources and services.